Regional Weather Roundup
Issued by NWS

Home | Current Version | Previous Version | Graphics & Text | Print | Product List | Glossary On
Versions: 1 2 3 4 5 6 7 8 9 10 11 12 13 14 15 16 17 18 19 20 21 22 23 24 25 26 27 28 29 30 31 32 33 34 35 36 37 38 39 40 41 42 43 44 45 46 47 48 49 50
000
ASUS45 KABQ 151210
RWRNM
NEW MEXICO REGIONAL WEATHER ROUNDUP
NATIONAL WEATHER SERVICE ALBUQUERQUE NM
500 AM MST FRI DEC 15 2017

NOTE: "FAIR" MEANS FEW OR NO CLOUDS BELOW 12,000 FEET AGL WITH NO
       SIGNIFICANT WEATHER OR OBSTRUCTIONS TO VISION.

      THIS PRODUCT IS RELEASED AS TWO VERSIONS.  ONE VERSION NEAR
      THE TOP OF THE HOUR CONTAINING PRELIMINARY DATA FROM ALBUQUERQUE
      AND OTHER STATIONS.  A FINAL VERSION WITH ADDITIONAL DATA IS
      ISSUED ABOUT 10 MINUTES AFTER THE HOUR.

NMZ501-503-504-510>518-151300-
NORTHWEST PLATEAU/NORTHCENTRAL MOUNTAINS

CITY           SKY/WX    TMP DP  RH WIND       PRES   REMARKS
FARMINGTON     FAIR      17  11  77 E6        30.33R WCI   9
6HR MIN TEMP:  17; 6HR MAX TEMP:  25;

LOS ALAMOS     FAIR      25  16  68 N3        30.30S
SANTA FE       FAIR      13  10  88 N8        30.30F WCI   2
6HR MIN TEMP:  13; 6HR MAX TEMP:  26;

TAOS           FAIR       8   4  83 N3        30.35R
ANGEL FIRE     FAIR       7   3  84 CALM      30.30R

$$
NMZ402-403-502-505>509-151300-
WESTCENTRAL MOUNTAINS/SOUTHWEST MOUNTAINS

CITY           SKY/WX    TMP DP  RH WIND       PRES   REMARKS
GALLUP         FAIR       7   0  73 CALM      30.33S
6HR MIN TEMP:   6; 6HR MAX TEMP:  17;

GRANTS         FAIR       8   4  85 NW6       30.34S WCI  -2
SILVER CITY    FAIR      18   8  64 N6        30.28S WCI  10

$$
NMZ407-409-411-412-151300-
SOUTHERN DESERTS

CITY           SKY/WX    TMP DP  RH WIND       PRES   REMARKS
DEMING         FAIR      29  14  53 E8        30.30R WCI  21
6HR MIN TEMP:  29; 6HR MAX TEMP:  39;

LAS CRUCES     FAIR      31  17  56 N6        30.30S WCI  25
HOLLOMAN AFB   FAIR      26  13  58 SE5       30.33R WCI  21
ALAMOGORDO     FAIR      28  16  59 S8        30.31R WCI  20
T OR C         FAIR      32  14  47 N6        30.30R WCI  26
6HR MIN TEMP:  28; 6HR MAX TEMP:  40;


$$
NMZ519>523-151300-
CENTRAL VALLEYS/CENTRAL HIGHLANDS

CITY           SKY/WX    TMP DP  RH WIND       PRES   REMARKS
ALBUQUERQUE    FAIR      27  17  66 N7        30.33S WCI  19
6HR MIN TEMP:  26; 6HR MAX TEMP:  33;

MORIARTY ARPT  FAIR       7   3  83 CALM      30.32S
6HR MIN TEMP:   7; 6HR MAX TEMP:  15;

CLINES CORNERS FAIR      11   9  92 W10       30.27F WCI  -3
6HR MIN TEMP:  11; 6HR MAX TEMP:  21;

BELEN          FAIR      18  10  70 NW7       30.34R WCI   8
6HR MIN TEMP:  18; 6HR MAX TEMP:  28;

SOCORRO        FAIR      28  14  56 N8        30.32S WCI  20
6HR MIN TEMP:  23; 6HR MAX TEMP:  31;


$$
NMZ524>526-539-540-151300-
SOUTHCENTRAL MOUNTAINS

CITY           SKY/WX    TMP DP  RH WIND       PRES   REMARKS
RUIDOSO        FAIR      23  14  68 NW3       30.30S

$$
NMZ527>531-151300-
NORTHEAST HIGHLANDS/NORTHEAST PLAINS

CITY           SKY/WX    TMP DP  RH WIND       PRES   REMARKS
LAS VEGAS      FAIR      17  15  92 S12       30.24F WCI   4
6HR MIN TEMP:  15; 6HR MAX TEMP:  22;

RATON          FAIR      11   6  81 E6        30.21F WCI   1
6HR MIN TEMP:   9; 6HR MAX TEMP:  19;

CLAYTON        FAIR      24  20  84 W16       30.19F WCI  11
6HR MIN TEMP:  19; 6HR MAX TEMP:  25;


$$
NMZ532>537-151300-
EASTCENTRAL PLAINS

CITY           SKY/WX    TMP DP  RH WIND       PRES   REMARKS
SANTA ROSA     FAIR      20  17  88 SW5       30.29F WCI  14
TUCUMCARI      FAIR      23  21  92 SW5       30.27F WCI  17
6HR MIN TEMP:  21; 6HR MAX TEMP:  36;

CANNON AFB     CLEAR     25  25 100 N10       30.30F WCI  15
6HR MIN TEMP:  23; 6HR MAX TEMP:  34;

CLOVIS AIRPORT FAIR      22  20  92 NW9       30.30F WCI  12

$$
NMZ028-029-538-151300-
SOUTHEAST PLAINS

CITY           SKY/WX    TMP DP  RH WIND       PRES   REMARKS
ROSWELL        FAIR      26  18  71 N3        30.33S
6HR MIN TEMP:  25; 6HR MAX TEMP:  37;

ARTESIA        FAIR      28  18  64 W9        30.35S WCI  20
CARLSBAD       FAIR      27  23  85 W8        30.34S WCI  19
6HR MIN TEMP:  25; 6HR MAX TEMP:  35;

HOBBS          FAIR      25  21  86 N9        30.33R WCI  15


$$




USA.gov is the U.S. government's official web portal to all federal, state and local government web resources and services.